Time,TemperatureF,DewpointF,PressureIn,WindDirection,WindDirectionDegrees,WindSpeedMPH,WindSpeedGustMPH,Humidity,HourlyPrecipIn,Conditions,Clouds,dailyrainin,SoftwareType,DateUTC
2013-04-24 00:00:00,47.5,44.1,29.84,SW,217,3.0,8.0,88,0.00,,,-99.99,Weather View 32 v60,2013-04-24 07:00:00,
2013-04-24 00:05:00,47.4,44.0,29.84,SSE,151,2.0,8.0,88,0.00,,,-99.99,Weather View 32 v60,2013-04-24 07:05:00,
2013-04-24 00:10:00,47.2,43.8,29.84,ESE,114,3.0,7.0,88,0.00,,,-99.99,Weather View 32 v60,2013-04-24 07:10:00,
2013-04-24 00:15:00,47.2,43.8,29.84,SSW,207,2.0,7.0,88,0.00,,,-99.99,Weather View 32 v60,2013-04-24 07:15:00,
2013-04-24 00:20:00,47.2,43.8,29.84,SE,131,2.0,7.0,88,0.00,,,-99.99,Weather View 32 v60,2013-04-24 07:20:00,
2013-04-24 00:25:00,47.2,43.8,29.84,ESE,106,2.0,7.0,88,0.00,,,-99.99,Weather View 32 v60,2013-04-24 07:25:00,
2013-04-24 00:30:00,47.2,43.8,29.84,NNE,15,1.0,7.0,88,0.00,,,-99.99,Weather View 32 v60,2013-04-24 07:30:00,
2013-04-24 00:35:00,47.4,44.3,29.83,North,10,0.0,7.0,89,0.00,,,-99.99,Weather View 32 v60,2013-04-24 07:35:00,
2013-04-24 00:40:00,47.6,44.5,29.83,North,1,0.0,7.0,89,0.00,,,-99.99,Weather View 32 v60,2013-04-24 07:40:00,
2013-04-24 00:45:00,47.7,44.6,29.83,NW,320,0.0,7.0,89,0.00,,,-99.99,Weather View 32 v60,2013-04-24 07:45:00,
2013-04-24 00:50:00,47.9,44.8,29.83,NW,316,0.0,7.0,89,0.00,,,-99.99,Weather View 32 v60,2013-04-24 07:50:00,
2013-04-24 00:55:00,47.9,44.5,29.83,ESE,118,1.0,7.0,88,0.00,,,-99.99,Weather View 32 v60,2013-04-24 07:55:00,
2013-04-24 01:00:00,47.9,44.5,29.83,NNE,21,0.0,7.0,88,0.00,,,-99.99,Weather View 32 v60,2013-04-24 08:00:00,
2013-04-24 01:05:00,48.0,44.6,29.83,NE,51,2.0,7.0,88,0.00,,,-99.99,Weather View 32 v60,2013-04-24 08:05:00,
2013-04-24 01:10:00,47.8,44.4,29.82,ENE,57,2.0,5.0,88,0.00,,,-99.99,Weather View 32 v60,2013-04-24 08:10:00,
2013-04-24 01:15:00,47.8,44.4,29.82,NE,37,1.0,5.0,88,0.00,,,-99.99,Weather View 32 v60,2013-04-24 08:15:00,
2013-04-24 01:20:00,47.8,44.4,29.82,NE,47,2.0,5.0,88,0.00,,,-99.99,Weather View 32 v60,2013-04-24 08:20:00,
2013-04-24 01:25:00,47.8,44.4,29.82,ESE,122,2.0,4.0,88,0.00,,,-99.99,Weather View 32 v60,2013-04-24 08:25:00,
2013-04-24 01:30:00,47.8,44.4,29.82,SSE,160,2.0,4.0,88,0.00,,,-99.99,Weather View 32 v60,2013-04-24 08:30:00,
2013-04-24 01:35:00,47.9,44.5,29.82,ENE,72,2.0,4.0,88,0.00,,,-99.99,Weather View 32 v60,2013-04-24 08:35:00,
2013-04-24 01:40:00,47.9,44.5,29.81,East,85,2.0,4.0,88,0.00,,,-99.99,Weather View 32 v60,2013-04-24 08:40:00,
2013-04-24 01:45:00,47.8,44.4,29.81,SSE,152,3.0,5.0,88,0.00,,,-99.99,Weather View 32 v60,2013-04-24 08:45:00,
2013-04-24 01:50:00,47.8,44.4,29.81,NE,54,2.0,5.0,88,0.00,,,-99.99,Weather View 32 v60,2013-04-24 08:50:00,
2013-04-24 01:55:00,47.9,44.5,29.81,ESE,107,2.0,5.0,88,0.00,,,-99.99,Weather View 32 v60,2013-04-24 08:55:00,
2013-04-24 02:00:00,47.9,44.5,29.81,ESE,116,2.0,5.0,88,0.00,,,-99.99,Weather View 32 v60,2013-04-24 09:00:00,
2013-04-24 02:05:00,47.7,44.3,29.81,NE,37,2.0,5.0,88,0.00,,,-99.99,Weather View 32 v60,2013-04-24 09:05:00,
2013-04-24 02:10:00,47.7,44.3,29.81,ESE,104,2.0,5.0,88,0.00,,,-99.99,Weather View 32 v60,2013-04-24 09:10:00,
2013-04-24 02:15:00,47.6,44.2,29.81,ENE,64,3.0,5.0,88,0.00,,,-99.99,Weather View 32 v60,2013-04-24 09:15:00,
2013-04-24 02:20:00,47.5,44.1,29.81,North,0,2.0,5.0,88,0.00,,,-99.99,Weather View 32 v60,2013-04-24 09:20:00,
2013-04-24 02:25:00,47.6,44.2,29.81,North,9,2.0,5.0,88,0.00,,,-99.99,Weather View 32 v60,2013-04-24 09:25:00,
2013-04-24 02:30:00,47.5,44.1,29.81,ENE,69,5.0,5.0,88,0.00,,,-99.99,Weather View 32 v60,2013-04-24 09:30:00,
2013-04-24 02:35:00,47.4,44.0,29.81,East,101,2.0,5.0,88,0.00,,,-99.99,Weather View 32 v60,2013-04-24 09:35:00,
2013-04-24 02:40:00,47.6,44.5,29.81,NE,55,3.0,5.0,89,0.00,,,-99.99,Weather View 32 v60,2013-04-24 09:40:00,
2013-04-24 02:45:00,47.6,44.5,29.81,NNE,31,2.0,5.0,89,0.00,,,-99.99,Weather View 32 v60,2013-04-24 09:45:00,
2013-04-24 02:50:00,47.6,44.2,29.80,East,84,1.0,5.0,88,0.00,,,-99.99,Weather View 32 v60,2013-04-24 09:50:00,
2013-04-24 02:55:00,47.6,44.2,29.80,ENE,58,4.0,5.0,88,0.00,,,-99.99,Weather View 32 v60,2013-04-24 09:55:00,
2013-04-24 03:05:00,47.7,44.3,29.80,NNW,345,0.0,5.0,88,0.00,,,-99.99,Weather View 32 v60,2013-04-24 10:05:00,
2013-04-24 03:15:00,47.5,44.1,29.80,NE,47,2.0,5.0,88,0.00,,,-99.99,Weather View 32 v60,2013-04-24 10:15:00,
2013-04-24 03:20:00,47.3,43.9,29.80,ESE,122,3.0,5.0,88,0.00,,,-99.99,Weather View 32 v60,2013-04-24 10:20:00,
2013-04-24 03:25:00,47.2,43.8,29.80,ESE,119,1.0,5.0,88,0.00,,,-99.99,Weather View 32 v60,2013-04-24 10:25:00,
2013-04-24 03:30:00,47.4,44.3,29.80,ENE,71,2.0,5.0,89,0.00,,,-99.99,Weather View 32 v60,2013-04-24 10:30:00,
2013-04-24 03:35:00,47.3,43.9,29.80,ENE,63,4.0,5.0,88,0.00,,,-99.99,Weather View 32 v60,2013-04-24 10:35:00,
2013-04-24 03:40:00,47.1,43.7,29.80,East,90,2.0,5.0,88,0.00,,,-99.99,Weather View 32 v60,2013-04-24 10:40:00,
2013-04-24 03:45:00,47.2,43.8,29.80,ENE,67,2.0,5.0,88,0.00,,,-99.99,Weather View 32 v60,2013-04-24 10:45:00,
2013-04-24 03:50:00,47.2,43.8,29.80,East,91,0.0,5.0,88,0.00,,,-99.99,Weather View 32 v60,2013-04-24 10:50:00,
2013-04-24 03:55:00,47.1,43.7,29.80,East,94,3.0,5.0,88,0.00,,,-99.99,Weather View 32 v60,2013-04-24 10:55:00,
2013-04-24 04:00:00,47.0,43.9,29.80,NE,38,1.0,5.0,89,0.00,,,-99.99,Weather View 32 v60,2013-04-24 11:00:00,
2013-04-24 04:03:00,47.7,44.6,29.80,NNE,33,4.0,5.0,89,0.00,,,-99.99,Weather View 32 v60,2013-04-24 11:03:00,
2013-04-24 04:05:00,47.1,44.0,29.80,SE,135,1.0,5.0,89,0.00,,,-99.99,Weather View 32 v60,2013-04-24 11:05:00,
2013-04-24 04:13:00,47.7,44.3,29.80,NE,37,2.0,5.0,88,0.00,,,-99.99,Weather View 32 v60,2013-04-24 11:13:00,
2013-04-24 04:15:00,47.2,44.1,29.80,ESE,103,3.0,5.0,89,0.00,,,-99.99,Weather View 32 v60,2013-04-24 11:15:00,
2013-04-24 04:20:00,47.1,44.0,29.80,ENE,59,2.0,5.0,89,0.00,,,-99.99,Weather View 32 v60,2013-04-24 11:20:00,
2013-04-24 04:25:00,47.0,43.9,29.80,East,81,1.0,5.0,89,0.00,,,-99.99,Weather View 32 v60,2013-04-24 11:25:00,
2013-04-24 04:50:00,47.0,43.9,29.80,ENE,63,3.0,5.0,89,0.00,,,-99.99,Weather View 32 v60,2013-04-24 11:50:00,
2013-04-24 05:10:00,46.4,43.3,29.80,NNE,29,1.0,5.0,89,0.00,,,-99.99,Weather View 32 v60,2013-04-24 12:10:00,
2013-04-24 05:13:00,47.1,44.0,29.80,WNW,302,2.0,5.0,89,0.00,,,-99.99,Weather View 32 v60,2013-04-24 12:13:00,
2013-04-24 05:15:00,46.5,43.4,29.80,NE,38,1.0,5.0,89,0.00,,,-99.99,Weather View 32 v60,2013-04-24 12:15:00,
2013-04-24 05:25:00,46.5,43.4,29.80,ENE,61,2.0,5.0,89,0.00,,,-99.99,Weather View 32 v60,2013-04-24 12:25:00,
2013-04-24 05:30:00,46.5,43.4,29.80,East,80,2.0,5.0,89,0.00,,,-99.99,Weather View 32 v60,2013-04-24 12:30:00,
2013-04-24 05:33:00,46.9,43.8,29.80,ENE,78,2.0,5.0,89,0.00,,,-99.99,Weather View 32 v60,2013-04-24 12:33:00,
2013-04-24 05:38:00,46.8,43.7,29.80,ENE,57,1.0,5.0,89,0.00,,,-99.99,Weather View 32 v60,2013-04-24 12:38:00,
2013-04-24 05:40:00,46.4,43.3,29.80,NE,54,2.0,5.0,89,0.00,,,-99.99,Weather View 32 v60,2013-04-24 12:40:00,
2013-04-24 05:45:00,46.4,43.3,29.80,East,90,2.0,5.0,89,0.00,,,-99.99,Weather View 32 v60,2013-04-24 12:45:00,
2013-04-24 05:48:00,47.1,44.0,29.80,West,277,1.0,5.0,89,0.00,,,-99.99,Weather View 32 v60,2013-04-24 12:48:00,
2013-04-24 05:55:00,46.4,43.6,29.80,NE,50,2.0,5.0,90,0.00,,,-99.99,Weather View 32 v60,2013-04-24 12:55:00,
2013-04-24 05:58:00,46.6,43.5,29.80,ESE,107,2.0,5.0,89,0.00,,,-99.99,Weather View 32 v60,2013-04-24 12:58:00,
2013-04-24 06:03:00,46.4,43.3,29.80,East,101,2.0,5.0,89,0.00,,,-99.99,Weather View 32 v60,2013-04-24 13:03:00,
2013-04-24 06:08:00,46.4,43.3,29.80,ENE,62,3.0,5.0,89,0.00,,,-99.99,Weather View 32 v60,2013-04-24 13:08:00,
2013-04-24 06:10:00,47.2,44.4,29.81,NE,42,0.0,5.0,90,0.00,,,-99.99,Weather View 32 v60,2013-04-24 13:10:00,
2013-04-24 06:15:00,47.2,44.4,29.81,ESE,107,1.0,5.0,90,0.00,,,-99.99,Weather View 32 v60,2013-04-24 13:15:00,
2013-04-24 06:23:00,46.6,43.5,29.80,East,85,2.0,5.0,89,0.00,,,-99.99,Weather View 32 v60,2013-04-24 13:23:00,
2013-04-24 06:25:00,47.5,44.4,29.82,SSE,165,2.0,5.0,89,0.00,,,-99.99,Weather View 32 v60,2013-04-24 13:25:00,
2013-04-24 06:28:00,46.5,43.4,29.80,ENE,61,2.0,5.0,89,0.00,,,-99.99,Weather View 32 v60,2013-04-24 13:28:00,
2013-04-24 06:35:00,47.3,44.2,29.82,South,176,2.0,5.0,89,0.00,,,-99.99,Weather View 32 v60,2013-04-24 13:35:00,
2013-04-24 06:38:00,46.4,43.3,29.80,NNE,30,2.0,5.0,89,0.00,,,-99.99,Weather View 32 v60,2013-04-24 13:38:00,
2013-04-24 06:50:00,47.4,44.3,29.82,SW,229,3.0,6.0,89,0.00,,,-99.99,Weather View 32 v60,2013-04-24 13:50:00,
2013-04-24 06:53:00,46.4,43.3,29.80,ENE,64,2.0,5.0,89,0.00,,,-99.99,Weather View 32 v60,2013-04-24 13:53:00,
2013-04-24 06:55:00,47.4,44.3,29.83,SSE,162,3.0,6.0,89,0.00,,,-99.99,Weather View 32 v60,2013-04-24 13:55:00,
2013-04-24 07:03:00,46.5,43.7,29.80,ESE,107,1.0,5.0,90,0.00,,,-99.99,Weather View 32 v60,2013-04-24 14:03:00,
2013-04-24 07:08:00,46.9,44.1,29.81,East,99,1.0,5.0,90,0.00,,,-99.99,Weather View 32 v60,2013-04-24 14:08:00,
2013-04-24 07:23:00,47.4,44.6,29.81,ENE,68,2.0,5.0,90,0.00,,,-99.99,Weather View 32 v60,2013-04-24 14:23:00,
2013-04-24 07:25:00,47.5,44.7,29.83,SSE,163,3.0,8.0,90,0.00,,,-99.99,Weather View 32 v60,2013-04-24 14:25:00,
2013-04-24 07:28:00,47.5,44.4,29.82,SSE,165,2.0,5.0,89,0.00,,,-99.99,Weather View 32 v60,2013-04-24 14:28:00,
2013-04-24 07:33:00,47.5,44.4,29.82,SW,221,2.0,5.0,89,0.00,,,-99.99,Weather View 32 v60,2013-04-24 14:33:00,
2013-04-24 07:43:00,47.6,44.5,29.82,WSW,240,2.0,5.0,89,0.00,,,-99.99,Weather View 32 v60,2013-04-24 14:43:00,
2013-04-24 07:48:00,47.4,44.3,29.82,South,179,3.0,5.0,89,0.00,,,-99.99,Weather View 32 v60,2013-04-24 14:48:00,
2013-04-24 08:00:00,47.7,44.6,29.84,SE,125,5.0,8.0,89,0.00,,,-99.99,Weather View 32 v60,2013-04-24 15:00:00,
2013-04-24 08:03:00,47.4,44.3,29.83,SW,221,3.0,6.0,89,0.00,,,-99.99,Weather View 32 v60,2013-04-24 15:03:00,
2013-04-24 08:10:00,48.0,44.6,29.84,SSW,206,4.0,9.0,88,0.00,,,-99.99,Weather View 32 v60,2013-04-24 15:10:00,
2013-04-24 08:13:00,47.3,44.5,29.83,SSW,206,6.0,8.0,90,0.00,,,-99.99,Weather View 32 v60,2013-04-24 15:13:00,
2013-04-24 08:20:00,48.4,44.7,29.84,ESE,123,5.0,11.0,87,0.00,,,-99.99,Weather View 32 v60,2013-04-24 15:20:00,
2013-04-24 08:23:00,47.1,44.0,29.83,SSE,167,2.0,8.0,89,0.00,,,-99.99,Weather View 32 v60,2013-04-24 15:23:00,
2013-04-24 08:28:00,47.5,44.7,29.83,SSE,163,3.0,8.0,90,0.00,,,-99.99,Weather View 32 v60,2013-04-24 15:28:00,
2013-04-24 08:33:00,47.7,44.6,29.83,SSE,163,6.0,8.0,89,0.00,,,-99.99,Weather View 32 v60,2013-04-24 15:33:00,
2013-04-24 08:38:00,47.9,44.8,29.84,SW,218,4.0,8.0,89,0.00,,,-99.99,Weather View 32 v60,2013-04-24 15:38:00,
2013-04-24 08:40:00,50.1,45.4,29.84,East,87,3.0,11.0,84,0.00,,,-99.99,Weather View 32 v60,2013-04-24 15:40:00,
2013-04-24 08:43:00,47.7,44.6,29.84,South,179,4.0,8.0,89,0.00,,,-99.99,Weather View 32 v60,2013-04-24 15:43:00,
2013-04-24 08:53:00,47.8,45.0,29.84,SE,134,4.0,8.0,90,0.00,,,-99.99,Weather View 32 v60,2013-04-24 15:53:00,
2013-04-24 08:55:00,51.3,45.7,29.84,ESE,123,3.0,11.0,81,0.00,,,-99.99,Weather View 32 v60,2013-04-24 15:55:00,
2013-04-24 08:58:00,47.8,44.7,29.84,SSE,160,5.0,8.0,89,0.00,,,-99.99,Weather View 32 v60,2013-04-24 15:58:00,
2013-04-24 09:08:00,47.7,44.3,29.84,SSW,210,5.0,8.0,88,0.00,,,-99.99,Weather View 32 v60,2013-04-24 16:08:00,
2013-04-24 09:10:00,52.8,46.1,29.84,SSE,158,3.0,11.0,78,0.00,,,-99.99,Weather View 32 v60,2013-04-24 16:10:00,
2013-04-24 09:15:00,53.5,46.1,29.84,SW,214,3.0,11.0,76,0.00,,,-99.99,Weather View 32 v60,2013-04-24 16:15:00,
2013-04-24 09:18:00,48.0,44.3,29.84,SE,130,7.0,11.0,87,0.00,,,-99.99,Weather View 32 v60,2013-04-24 16:18:00,
2013-04-24 09:20:00,54.0,46.6,29.85,East,86,7.0,10.0,76,0.00,,,-99.99,Weather View 32 v60,2013-04-24 16:20:00,
2013-04-24 09:28:00,48.6,44.6,29.84,East,97,4.0,11.0,86,0.00,,,-99.99,Weather View 32 v60,2013-04-24 16:28:00,
2013-04-24 09:30:00,54.7,46.2,29.84,ESE,104,7.0,13.0,73,0.00,,,-99.99,Weather View 32 v60,2013-04-24 16:30:00,
2013-04-24 09:33:00,48.9,44.6,29.84,SW,229,5.0,11.0,85,0.00,,,-99.99,Weather View 32 v60,2013-04-24 16:33:00,
2013-04-24 09:35:00,55.2,46.7,29.84,SE,134,8.0,13.0,73,0.00,,,-99.99,Weather View 32 v60,2013-04-24 16:35:00,
2013-04-24 09:40:00,55.1,46.2,29.85,SSE,149,5.0,13.0,72,0.00,,,-99.99,Weather View 32 v60,2013-04-24 16:40:00,
2013-04-24 09:48:00,50.3,45.3,29.85,SW,217,5.0,11.0,83,0.00,,,-99.99,Weather View 32 v60,2013-04-24 16:48:00,
2013-04-24 09:50:00,56.4,47.1,29.84,SE,126,3.0,13.0,71,0.00,,,-99.99,Weather View 32 v60,2013-04-24 16:50:00,
2013-04-24 09:53:00,50.7,45.4,29.85,SSE,158,7.0,11.0,82,0.00,,,-99.99,Weather View 32 v60,2013-04-24 16:53:00,
2013-04-24 10:00:00,57.9,47.4,29.84,East,97,6.0,13.0,68,0.00,,,-99.99,Weather View 32 v60,2013-04-24 17:00:00,
2013-04-24 10:03:00,51.7,45.7,29.84,SE,139,6.0,11.0,80,0.00,,,-99.99,Weather View 32 v60,2013-04-24 17:03:00,
2013-04-24 10:08:00,52.2,45.9,29.85,SW,214,5.0,11.0,79,0.00,,,-99.99,Weather View 32 v60,2013-04-24 17:08:00,
2013-04-24 10:10:00,59.1,47.7,29.84,SSE,157,7.0,13.0,66,0.00,,,-99.99,Weather View 32 v60,2013-04-24 17:10:00,
2013-04-24 10:15:00,59.1,47.7,29.84,SSE,162,5.0,13.0,66,0.00,,,-99.99,Weather View 32 v60,2013-04-24 17:15:00,
2013-04-24 10:28:00,54.7,46.9,29.84,East,101,6.0,13.0,75,0.00,,,-99.99,Weather View 32 v60,2013-04-24 17:28:00,
2013-04-24 10:30:00,60.4,47.3,29.84,SE,144,8.0,13.0,62,0.00,,,-99.99,Weather View 32 v60,2013-04-24 17:30:00,
2013-04-24 10:33:00,54.7,46.2,29.84,ESE,104,7.0,13.0,73,0.00,,,-99.99,Weather View 32 v60,2013-04-24 17:33:00,
2013-04-24 10:48:00,56.0,47.4,29.84,SSW,208,5.0,13.0,73,0.00,,,-99.99,Weather View 32 v60,2013-04-24 17:48:00,
2013-04-24 10:58:00,57.2,47.5,29.84,ESE,119,4.0,13.0,70,0.00,,,-99.99,Weather View 32 v60,2013-04-24 17:58:00,
2013-04-24 11:00:00,62.3,46.4,29.83,SE,141,9.0,13.0,56,0.00,,,-99.99,Weather View 32 v60,2013-04-24 18:00:00,
2013-04-24 11:08:00,58.4,47.5,29.84,ESE,111,6.0,13.0,67,0.00,,,-99.99,Weather View 32 v60,2013-04-24 18:08:00,
2013-04-24 11:15:00,62.5,46.1,29.83,South,169,14.0,17.0,55,0.00,,,-99.99,Weather View 32 v60,2013-04-24 18:15:00,
2013-04-24 11:20:00,62.4,46.5,29.83,South,173,5.0,17.0,56,0.00,,,-99.99,Weather View 32 v60,2013-04-24 18:20:00,
2013-04-24 11:23:00,59.9,48.1,29.84,ESE,116,4.0,13.0,65,0.00,,,-99.99,Weather View 32 v60,2013-04-24 18:23:00,
2013-04-24 11:25:00,62.5,47.0,29.83,SSE,157,6.0,17.0,57,0.00,,,-99.99,Weather View 32 v60,2013-04-24 18:25:00,
2013-04-24 11:28:00,60.3,47.6,29.84,SSE,151,5.0,13.0,63,0.00,,,-99.99,Weather View 32 v60,2013-04-24 18:28:00,
2013-04-24 11:30:00,62.4,47.4,29.83,SSW,212,6.0,17.0,58,0.00,,,-99.99,Weather View 32 v60,2013-04-24 18:30:00,
2013-04-24 11:38:00,60.9,46.9,29.84,SSE,155,8.0,13.0,60,0.00,,,-99.99,Weather View 32 v60,2013-04-24 18:38:00,
2013-04-24 11:40:00,62.0,46.6,29.83,SSW,206,11.0,17.0,57,0.00,,,-99.99,Weather View 32 v60,2013-04-24 18:40:00,
2013-04-24 11:43:00,61.2,46.3,29.84,SSW,212,8.0,13.0,58,0.00,,,-99.99,Weather View 32 v60,2013-04-24 18:43:00,
2013-04-24 11:45:00,62.0,47.0,29.83,SSE,149,7.0,17.0,58,0.00,,,-99.99,Weather View 32 v60,2013-04-24 18:45:00,
2013-04-24 11:53:00,62.5,47.0,29.83,WSW,241,3.0,13.0,57,0.00,,,-99.99,Weather View 32 v60,2013-04-24 18:53:00,
2013-04-24 11:58:00,62.7,46.7,29.83,SSW,209,11.0,13.0,56,0.00,,,-99.99,Weather View 32 v60,2013-04-24 18:58:00,
2013-04-24 12:00:00,61.8,46.4,29.83,SSE,167,9.0,18.0,57,0.00,,,-99.99,Weather View 32 v60,2013-04-24 19:00:00,
2013-04-24 12:08:00,62.8,46.8,29.83,ESE,103,6.0,14.0,56,0.00,,,-99.99,Weather View 32 v60,2013-04-24 19:08:00,
2013-04-24 12:10:00,61.4,46.0,29.83,SE,126,11.0,18.0,57,0.00,,,-99.99,Weather View 32 v60,2013-04-24 19:10:00,
2013-04-24 12:15:00,62.2,47.2,29.83,SW,219,8.0,18.0,58,0.00,,,-99.99,Weather View 32 v60,2013-04-24 19:15:00,
2013-04-24 12:25:00,61.6,46.6,29.83,South,173,9.0,18.0,58,0.00,,,-99.99,Weather View 32 v60,2013-04-24 19:25:00,
2013-04-24 12:30:00,61.2,46.7,29.83,SSE,155,7.0,18.0,59,0.00,,,-99.99,Weather View 32 v60,2013-04-24 19:30:00,
2013-04-24 12:35:00,62.4,47.4,29.83,SSW,212,6.0,17.0,58,0.00,,,-99.99,Weather View 32 v60,2013-04-24 19:35:00,
2013-04-24 12:50:00,61.8,46.8,29.82,SE,137,8.0,20.0,58,0.00,,,-99.99,Weather View 32 v60,2013-04-24 19:50:00,
2013-04-24 12:53:00,62.7,47.2,29.83,SE,137,7.0,17.0,57,0.00,,,-99.99,Weather View 32 v60,2013-04-24 19:53:00,
2013-04-24 12:55:00,61.7,46.3,29.83,SSE,155,14.0,20.0,57,0.00,,,-99.99,Weather View 32 v60,2013-04-24 19:55:00,
2013-04-24 12:58:00,61.9,46.5,29.83,SE,134,9.0,18.0,57,0.00,,,-99.99,Weather View 32 v60,2013-04-24 19:58:00,
2013-04-24 13:00:00,61.5,46.5,29.82,East,86,8.0,20.0,58,0.00,,,-99.99,Weather View 32 v60,2013-04-24 20:00:00,
2013-04-24 13:08:00,61.8,46.8,29.83,SE,140,17.0,18.0,58,0.00,,,-99.99,Weather View 32 v60,2013-04-24 20:08:00,
2013-04-24 13:10:00,61.3,46.4,29.82,SSE,168,13.0,20.0,58,0.00,,,-99.99,Weather View 32 v60,2013-04-24 20:10:00,
2013-04-24 13:15:00,61.5,46.5,29.82,South,173,12.0,20.0,58,0.00,,,-99.99,Weather View 32 v60,2013-04-24 20:15:00,
2013-04-24 13:23:00,62.6,46.6,29.83,SW,233,5.0,18.0,56,0.00,,,-99.99,Weather View 32 v60,2013-04-24 20:23:00,
2013-04-24 13:25:00,62.1,45.7,29.82,SSE,164,10.0,20.0,55,0.00,,,-99.99,Weather View 32 v60,2013-04-24 20:25:00,
2013-04-24 13:30:00,62.1,45.7,29.82,SE,131,6.0,20.0,55,0.00,,,-99.99,Weather View 32 v60,2013-04-24 20:30:00,
2013-04-24 13:36:00,61.2,46.7,29.83,SSE,155,7.0,18.0,59,0.00,,,-99.99,Weather View 32 v60,2013-04-24 20:36:00,
2013-04-24 13:40:00,62.7,46.3,29.82,SSE,168,11.0,20.0,55,0.00,,,-99.99,Weather View 32 v60,2013-04-24 20:40:00,
2013-04-24 13:43:00,61.8,46.8,29.83,ESE,118,11.0,18.0,58,0.00,,,-99.99,Weather View 32 v60,2013-04-24 20:43:00,
2013-04-24 14:08:00,61.6,46.2,29.83,South,169,10.0,20.0,57,0.00,,,-99.99,Weather View 32 v60,2013-04-24 21:08:00,
2013-04-24 14:23:00,61.6,45.7,29.82,SE,129,10.0,20.0,56,0.00,,,-99.99,Weather View 32 v60,2013-04-24 21:23:00,
2013-04-24 14:30:00,62.7,46.3,29.82,SE,143,8.0,18.0,55,0.00,,,-99.99,Weather View 32 v60,2013-04-24 21:30:00,
2013-04-24 14:35:00,62.3,45.9,29.82,SSE,158,9.0,18.0,55,0.00,,,-99.99,Weather View 32 v60,2013-04-24 21:35:00,
2013-04-24 14:38:00,62.6,46.2,29.82,SSW,203,8.0,20.0,55,0.00,,,-99.99,Weather View 32 v60,2013-04-24 21:38:00,
2013-04-24 14:48:00,62.2,45.3,29.82,South,172,14.0,20.0,54,0.00,,,-99.99,Weather View 32 v60,2013-04-24 21:48:00,
2013-04-24 14:53:00,62.0,45.1,29.82,SE,141,9.0,18.0,54,0.00,,,-99.99,Weather View 32 v60,2013-04-24 21:53:00,
2013-04-24 15:03:00,62.1,45.2,29.82,SE,134,7.0,18.0,54,0.00,,,-99.99,Weather View 32 v60,2013-04-24 22:03:00,
2013-04-24 15:08:00,61.8,45.4,29.82,SW,230,9.0,18.0,55,0.00,,,-99.99,Weather View 32 v60,2013-04-24 22:08:00,
2013-04-24 15:13:00,62.3,45.4,29.82,SSW,211,9.0,18.0,54,0.00,,,-99.99,Weather View 32 v60,2013-04-24 22:13:00,
2013-04-24 15:23:00,62.0,45.6,29.82,SW,218,8.0,18.0,55,0.00,,,-99.99,Weather View 32 v60,2013-04-24 22:23:00,
2013-04-24 15:28:00,62.3,45.9,29.82,SE,137,14.0,18.0,55,0.00,,,-99.99,Weather View 32 v60,2013-04-24 22:28:00,
2013-04-24 15:30:00,60.6,45.7,29.81,SW,214,8.0,18.0,58,0.00,,,-99.99,Weather View 32 v60,2013-04-24 22:30:00,
2013-04-24 15:33:00,62.7,46.3,29.82,SE,143,8.0,18.0,55,0.00,,,-99.99,Weather View 32 v60,2013-04-24 22:33:00,
2013-04-24 15:40:00,60.7,45.8,29.82,SW,220,10.0,18.0,58,0.00,,,-99.99,Weather View 32 v60,2013-04-24 22:40:00,
2013-04-24 15:43:00,61.7,45.8,29.82,SSE,149,12.0,18.0,56,0.00,,,-99.99,Weather View 32 v60,2013-04-24 22:43:00,
2013-04-24 15:45:00,60.0,45.6,29.82,SSE,149,10.0,18.0,59,0.00,,,-99.99,Weather View 32 v60,2013-04-24 22:45:00,
2013-04-24 15:50:00,60.0,45.6,29.82,SSW,207,12.0,17.0,59,0.00,,,-99.99,Weather View 32 v60,2013-04-24 22:50:00,
2013-04-24 15:53:00,61.9,46.0,29.82,SSW,206,13.0,18.0,56,0.00,,,-99.99,Weather View 32 v60,2013-04-24 22:53:00,
2013-04-24 15:55:00,59.6,45.2,29.81,SSW,208,8.0,17.0,59,0.00,,,-99.99,Weather View 32 v60,2013-04-24 22:55:00,
2013-04-24 15:58:00,61.6,45.7,29.82,SW,226,7.0,18.0,56,0.00,,,-99.99,Weather View 32 v60,2013-04-24 22:58:00,
2013-04-24 16:00:00,59.5,45.1,29.82,ESE,108,8.0,17.0,59,0.00,,,-99.99,Weather View 32 v60,2013-04-24 23:00:00,
2013-04-24 16:03:00,61.0,46.1,29.82,SE,130,12.0,18.0,58,0.00,,,-99.99,Weather View 32 v60,2013-04-24 23:03:00,
2013-04-24 16:05:00,59.8,45.4,29.82,SE,144,7.0,17.0,59,0.00,,,-99.99,Weather View 32 v60,2013-04-24 23:05:00,
2013-04-24 16:08:00,60.7,45.8,29.82,SE,143,9.0,18.0,58,0.00,,,-99.99,Weather View 32 v60,2013-04-24 23:08:00,
2013-04-24 16:13:00,60.3,45.9,29.82,SSE,150,11.0,18.0,59,0.00,,,-99.99,Weather View 32 v60,2013-04-24 23:13:00,
2013-04-24 16:15:00,59.7,45.3,29.82,SE,124,5.0,17.0,59,0.00,,,-99.99,Weather View 32 v60,2013-04-24 23:15:00,
2013-04-24 16:20:00,59.9,45.5,29.82,SSE,166,8.0,17.0,59,0.00,,,-99.99,Weather View 32 v60,2013-04-24 23:20:00,
2013-04-24 16:23:00,60.7,46.3,29.82,East,86,4.0,18.0,59,0.00,,,-99.99,Weather View 32 v60,2013-04-24 23:23:00,
2013-04-24 16:25:00,60.0,45.6,29.82,ESE,117,8.0,17.0,59,0.00,,,-99.99,Weather View 32 v60,2013-04-24 23:25:00,
2013-04-24 16:28:00,61.1,46.2,29.82,SSW,210,4.0,18.0,58,0.00,,,-99.99,Weather View 32 v60,2013-04-24 23:28:00,
2013-04-24 16:30:00,59.9,45.5,29.83,ESE,121,8.0,17.0,59,0.00,,,-99.99,Weather View 32 v60,2013-04-24 23:30:00,
2013-04-24 16:35:00,59.4,45.5,29.82,SE,137,11.0,17.0,60,0.00,,,-99.99,Weather View 32 v60,2013-04-24 23:35:00,
2013-04-24 16:38:00,61.1,46.2,29.82,ESE,110,9.0,18.0,58,0.00,,,-99.99,Weather View 32 v60,2013-04-24 23:38:00,
2013-04-24 16:45:00,58.8,45.3,29.83,ESE,122,5.0,16.0,61,0.00,,,-99.99,Weather View 32 v60,2013-04-24 23:45:00,
2013-04-24 16:50:00,58.1,44.7,29.83,SSE,156,12.0,17.0,61,0.00,,,-99.99,Weather View 32 v60,2013-04-24 23:50:00,
2013-04-24 17:05:00,57.3,45.2,29.84,SE,141,8.0,17.0,64,0.00,,,-99.99,Weather View 32 v60,2013-04-25 00:05:00,
2013-04-24 17:13:00,59.8,45.4,29.82,SSW,206,10.0,17.0,59,0.00,,,-99.99,Weather View 32 v60,2013-04-25 00:13:00,
2013-04-24 17:15:00,57.0,44.5,29.84,SSE,165,8.0,17.0,63,0.00,,,-99.99,Weather View 32 v60,2013-04-25 00:15:00,
2013-04-24 17:25:00,56.3,44.3,29.85,SE,138,8.0,17.0,64,0.00,,,-99.99,Weather View 32 v60,2013-04-25 00:25:00,
2013-04-24 17:30:00,56.0,44.4,29.85,SSE,152,10.0,17.0,65,0.00,,,-99.99,Weather View 32 v60,2013-04-25 00:30:00,
2013-04-24 17:33:00,59.9,45.5,29.83,ESE,121,8.0,17.0,59,0.00,,,-99.99,Weather View 32 v60,2013-04-25 00:33:00,
2013-04-24 17:35:00,55.9,44.7,29.85,SE,141,8.0,17.0,66,0.00,,,-99.99,Weather View 32 v60,2013-04-25 00:35:00,
2013-04-24 17:43:00,58.9,45.0,29.83,SSE,156,10.0,16.0,60,0.00,,,-99.99,Weather View 32 v60,2013-04-25 00:43:00,
2013-04-24 17:45:00,55.4,44.2,29.85,SSE,152,5.0,17.0,66,0.00,,,-99.99,Weather View 32 v60,2013-04-25 00:45:00,
2013-04-24 17:55:00,54.3,44.3,29.85,SSE,151,8.0,16.0,69,0.00,,,-99.99,Weather View 32 v60,2013-04-25 00:55:00,
2013-04-24 17:58:00,57.9,45.4,29.83,SE,134,7.0,17.0,63,0.00,,,-99.99,Weather View 32 v60,2013-04-25 00:58:00,
2013-04-24 18:00:00,54.0,44.0,29.86,SSE,153,6.0,16.0,69,0.00,,,-99.99,Weather View 32 v60,2013-04-25 01:00:00,
2013-04-24 18:03:00,57.4,44.9,29.83,SSE,158,15.0,17.0,63,0.00,,,-99.99,Weather View 32 v60,2013-04-25 01:03:00,
2013-04-24 18:05:00,53.7,44.1,29.86,South,174,11.0,16.0,70,0.00,,,-99.99,Weather View 32 v60,2013-04-25 01:05:00,
2013-04-24 18:10:00,53.8,44.2,29.86,SE,133,7.0,16.0,70,0.00,,,-99.99,Weather View 32 v60,2013-04-25 01:10:00,
2013-04-24 18:13:00,57.6,45.1,29.84,SSE,159,8.0,17.0,63,0.00,,,-99.99,Weather View 32 v60,2013-04-25 01:13:00,
2013-04-24 18:20:00,53.0,44.2,29.86,South,173,8.0,16.0,72,0.00,,,-99.99,Weather View 32 v60,2013-04-25 01:20:00,
2013-04-24 18:23:00,57.1,45.0,29.84,SSW,208,10.0,17.0,64,0.00,,,-99.99,Weather View 32 v60,2013-04-25 01:23:00,
2013-04-24 18:30:00,52.7,43.9,29.86,SE,125,10.0,16.0,72,0.00,,,-99.99,Weather View 32 v60,2013-04-25 01:30:00,
2013-04-24 18:35:00,52.4,44.0,29.87,SSE,162,5.0,16.0,73,0.00,,,-99.99,Weather View 32 v60,2013-04-25 01:35:00,
2013-04-24 18:40:00,52.2,44.1,29.87,East,90,4.0,16.0,74,0.00,,,-99.99,Weather View 32 v60,2013-04-25 01:40:00,
2013-04-24 18:43:00,55.8,44.6,29.85,SSE,149,5.0,17.0,66,0.00,,,-99.99,Weather View 32 v60,2013-04-25 01:43:00,
2013-04-24 18:45:00,51.8,44.1,29.87,SE,134,4.0,16.0,75,0.00,,,-99.99,Weather View 32 v60,2013-04-25 01:45:00,
2013-04-24 18:50:00,51.7,44.0,29.87,SE,133,5.0,16.0,75,0.00,,,-99.99,Weather View 32 v60,2013-04-25 01:50:00,
2013-04-24 18:53:00,54.7,44.3,29.85,SE,129,8.0,17.0,68,0.00,,,-99.99,Weather View 32 v60,2013-04-25 01:53:00,
2013-04-24 18:55:00,51.5,44.2,29.87,ESE,123,8.0,15.0,76,0.00,,,-99.99,Weather View 32 v60,2013-04-25 01:55:00,
2013-04-24 19:00:00,51.3,44.3,29.87,SE,145,8.0,15.0,77,0.00,,,-99.99,Weather View 32 v60,2013-04-25 02:00:00,
2013-04-24 19:18:00,53.3,44.1,29.86,SSE,150,9.0,16.0,71,0.00,,,-99.99,Weather View 32 v60,2013-04-25 02:18:00,
2013-04-24 19:25:00,51.0,44.7,29.88,SE,136,3.0,12.0,79,0.00,,,-99.99,Weather View 32 v60,2013-04-25 02:25:00,
2013-04-24 19:28:00,52.8,44.4,29.86,ESE,106,6.0,16.0,73,0.00,,,-99.99,Weather View 32 v60,2013-04-25 02:28:00,
2013-04-24 19:30:00,51.0,44.4,29.88,SE,142,4.0,12.0,78,0.00,,,-99.99,Weather View 32 v60,2013-04-25 02:30:00,
2013-04-24 19:39:00,52.4,44.0,29.87,SSE,162,5.0,16.0,73,0.00,,,-99.99,Weather View 32 v60,2013-04-25 02:39:00,
2013-04-24 19:45:00,50.9,44.3,29.89,South,169,4.0,11.0,78,0.00,,,-99.99,Weather View 32 v60,2013-04-25 02:45:00,
2013-04-24 19:50:00,51.0,44.4,29.89,SSE,157,5.0,11.0,78,0.00,,,-99.99,Weather View 32 v60,2013-04-25 02:50:00,
2013-04-24 20:00:00,50.9,44.3,29.89,SE,145,3.0,11.0,78,0.00,,,-99.99,Weather View 32 v60,2013-04-25 03:00:00,
2013-04-24 20:05:00,51.1,44.8,29.90,SSE,163,4.0,11.0,79,0.00,,,-99.99,Weather View 32 v60,2013-04-25 03:05:00,
2013-04-24 20:08:00,51.1,44.1,29.87,SE,125,5.0,15.0,77,0.00,,,-99.99,Weather View 32 v60,2013-04-25 03:08:00,
2013-04-24 20:10:00,51.1,44.5,29.90,SSW,207,5.0,11.0,78,0.00,,,-99.99,Weather View 32 v60,2013-04-25 03:10:00,
2013-04-24 20:15:00,50.9,44.3,29.90,SE,145,7.0,11.0,78,0.00,,,-99.99,Weather View 32 v60,2013-04-25 03:15:00,
2013-04-24 20:18:00,50.9,44.3,29.88,ESE,113,3.0,14.0,78,0.00,,,-99.99,Weather View 32 v60,2013-04-25 03:18:00,
2013-04-24 20:20:00,50.8,44.2,29.90,SSE,156,3.0,11.0,78,0.00,,,-99.99,Weather View 32 v60,2013-04-25 03:20:00,
2013-04-24 20:23:00,50.8,44.2,29.88,SSE,149,6.0,12.0,78,0.00,,,-99.99,Weather View 32 v60,2013-04-25 03:23:00,
2013-04-24 20:25:00,51.1,44.8,29.90,SE,139,7.0,11.0,79,0.00,,,-99.99,Weather View 32 v60,2013-04-25 03:25:00,
2013-04-24 20:30:00,50.9,44.3,29.90,SSE,167,5.0,11.0,78,0.00,,,-99.99,Weather View 32 v60,2013-04-25 03:30:00,
2013-04-24 20:35:00,50.8,44.2,29.90,SE,141,7.0,11.0,78,0.00,,,-99.99,Weather View 32 v60,2013-04-25 03:35:00,
2013-04-24 20:38:00,51.1,44.5,29.89,SE,125,2.0,12.0,78,0.00,,,-99.99,Weather View 32 v60,2013-04-25 03:38:00,
2013-04-24 20:40:00,50.6,44.0,29.90,SE,143,5.0,11.0,78,0.00,,,-99.99,Weather View 32 v60,2013-04-25 03:40:00,
2013-04-24 20:43:00,50.9,44.3,29.89,South,175,4.0,11.0,78,0.00,,,-99.99,Weather View 32 v60,2013-04-25 03:43:00,
2013-04-24 20:45:00,50.7,44.1,29.90,SE,124,4.0,11.0,78,0.00,,,-99.99,Weather View 32 v60,2013-04-25 03:45:00,
2013-04-24 20:50:00,50.8,44.5,29.90,SE,131,4.0,11.0,79,0.00,,,-99.99,Weather View 32 v60,2013-04-25 03:50:00,
2013-04-24 20:55:00,50.6,44.0,29.90,SE,131,5.0,11.0,78,0.00,,,-99.99,Weather View 32 v60,2013-04-25 03:55:00,
2013-04-24 20:58:00,51.0,44.4,29.89,SE,138,4.0,11.0,78,0.00,,,-99.99,Weather View 32 v60,2013-04-25 03:58:00,
2013-04-24 21:00:00,50.8,44.5,29.90,SSW,206,2.0,11.0,79,0.00,,,-99.99,Weather View 32 v60,2013-04-25 04:00:00,
2013-04-24 21:05:00,50.8,44.2,29.90,SE,145,7.0,11.0,78,0.00,,,-99.99,Weather View 32 v60,2013-04-25 04:05:00,
2013-04-24 21:10:00,50.6,44.0,29.90,South,176,3.0,11.0,78,0.00,,,-99.99,Weather View 32 v60,2013-04-25 04:10:00,
2013-04-24 21:15:00,50.7,44.4,29.90,SE,146,3.0,11.0,79,0.00,,,-99.99,Weather View 32 v60,2013-04-25 04:15:00,
2013-04-24 21:20:00,50.8,44.2,29.90,SE,133,3.0,9.0,78,0.00,,,-99.99,Weather View 32 v60,2013-04-25 04:20:00,
2013-04-24 21:25:00,51.0,44.4,29.90,SSW,212,3.0,9.0,78,0.00,,,-99.99,Weather View 32 v60,2013-04-25 04:25:00,
2013-04-24 21:30:00,50.7,44.1,29.90,ESE,120,2.0,9.0,78,0.00,,,-99.99,Weather View 32 v60,2013-04-25 04:30:00,
2013-04-24 21:35:00,50.6,44.3,29.90,SE,132,3.0,9.0,79,0.00,,,-99.99,Weather View 32 v60,2013-04-25 04:35:00,
2013-04-24 21:40:00,50.8,44.5,29.90,SW,227,4.0,11.0,79,0.00,,,-99.99,Weather View 32 v60,2013-04-25 04:40:00,
2013-04-24 21:45:00,50.7,44.4,29.91,SSE,160,3.0,11.0,79,0.00,,,-99.99,Weather View 32 v60,2013-04-25 04:45:00,
2013-04-24 21:50:00,50.6,44.3,29.91,South,169,3.0,11.0,79,0.00,,,-99.99,Weather View 32 v60,2013-04-25 04:50:00,
2013-04-24 21:55:00,50.5,44.2,29.90,SW,234,3.0,11.0,79,0.00,,,-99.99,Weather View 32 v60,2013-04-25 04:55:00,
2013-04-24 22:00:00,50.6,44.3,29.91,SE,144,3.0,11.0,79,0.00,,,-99.99,Weather View 32 v60,2013-04-25 05:00:00,
2013-04-24 22:05:00,50.7,44.4,29.91,South,175,3.0,11.0,79,0.00,,,-99.99,Weather View 32 v60,2013-04-25 05:05:00,
2013-04-24 22:10:00,50.7,44.4,29.91,SSE,162,3.0,11.0,79,0.00,,,-99.99,Weather View 32 v60,2013-04-25 05:10:00,
2013-04-24 22:15:00,50.5,44.2,29.91,SSW,205,3.0,11.0,79,0.00,,,-99.99,Weather View 32 v60,2013-04-25 05:15:00,
2013-04-24 22:20:00,50.3,44.4,29.91,ESE,111,2.0,11.0,80,0.00,,,-99.99,Weather View 32 v60,2013-04-25 05:20:00,
2013-04-24 22:25:00,50.3,44.4,29.91,WSW,252,2.0,11.0,80,0.00,,,-99.99,Weather View 32 v60,2013-04-25 05:25:00,
2013-04-24 22:30:00,50.3,44.7,29.91,SSW,208,2.0,11.0,81,0.00,,,-99.99,Weather View 32 v60,2013-04-25 05:30:00,
2013-04-24 22:35:00,50.5,44.5,29.91,SSE,168,3.0,11.0,80,0.00,,,-99.99,Weather View 32 v60,2013-04-25 05:35:00,
2013-04-24 22:40:00,50.3,44.4,29.91,SSE,163,3.0,8.0,80,0.00,,,-99.99,Weather View 32 v60,2013-04-25 05:40:00,
2013-04-24 22:45:00,50.3,44.7,29.91,SW,234,3.0,8.0,81,0.00,,,-99.99,Weather View 32 v60,2013-04-25 05:45:00,
2013-04-24 22:50:00,50.2,44.6,29.92,NW,315,3.0,8.0,81,0.00,,,-99.99,Weather View 32 v60,2013-04-25 05:50:00,
2013-04-24 22:55:00,50.3,44.7,29.92,West,280,2.0,8.0,81,0.00,,,-99.99,Weather View 32 v60,2013-04-25 05:55:00,
2013-04-24 23:00:00,50.4,44.8,29.92,WSW,238,2.0,8.0,81,0.00,,,-99.99,Weather View 32 v60,2013-04-25 06:00:00,
2013-04-24 23:05:00,50.3,44.7,29.92,West,272,3.0,8.0,81,0.00,,,-99.99,Weather View 32 v60,2013-04-25 06:05:00,
2013-04-24 23:10:00,50.2,44.6,29.92,West,272,3.0,8.0,81,0.00,,,-99.99,Weather View 32 v60,2013-04-25 06:10:00,
2013-04-24 23:15:00,50.1,44.5,29.92,SE,130,2.0,8.0,81,0.00,,,-99.99,Weather View 32 v60,2013-04-25 06:15:00,
2013-04-24 23:20:00,50.1,44.5,29.92,SE,131,2.0,8.0,81,0.00,,,-99.99,Weather View 32 v60,2013-04-25 06:20:00,
2013-04-24 23:25:00,50.2,44.6,29.92,SW,229,3.0,8.0,81,0.00,,,-99.99,Weather View 32 v60,2013-04-25 06:25:00,
2013-04-24 23:30:00,50.1,44.5,29.92,SW,233,3.0,8.0,81,0.00,,,-99.99,Weather View 32 v60,2013-04-25 06:30:00,
2013-04-24 23:35:00,50.0,44.4,29.92,SW,218,3.0,8.0,81,0.00,,,-99.99,Weather View 32 v60,2013-04-25 06:35:00,
2013-04-24 23:40:00,50.0,44.4,29.93,West,264,2.0,7.0,81,0.00,,,-99.99,Weather View 32 v60,2013-04-25 06:40:00,
2013-04-24 23:45:00,50.0,44.7,29.93,South,173,1.0,7.0,82,0.00,,,-99.99,Weather View 32 v60,2013-04-25 06:45:00,
2013-04-24 23:50:00,49.8,44.2,29.93,NE,51,1.0,7.0,81,0.00,,,-99.99,Weather View 32 v60,2013-04-25 06:50:00,
2013-04-24 23:55:00,49.8,44.5,29.93,SE,134,2.0,7.0,82,0.00,,,-99.99,Weather View 32 v60,2013-04-25 06:55:00,